Regional Weather Roundup
Issued by NWS

Home | Current Version | Previous Version | Text Only | Print | Product List | Glossary Off
Versions: 1 2 3 4 5 6 7 8 9 10 11 12 13 14 15 16 17 18 19 20 21 22 23 24 25 26 27 28 29 30 31 32 33 34 35 36 37 38 39 40 41 42 43 44 45 46 47 48 49 50

000
ASUS43 KMPX 262210
RWRMN
WEATHER ROUNDUP FOR MINNESOTA
NATIONAL WEATHER SERVICE TWIN CITIES/CHANHASSEN MN
500 PM CDT FRI MAY 26 2017


NOTE: "FAIR" INDICATES FEW OR NO CLOUDS BELOW 12,000 FEET WITH NO
SIGNIFICANT WEATHER AND/OR OBSTRUCTIONS TO VISIBILITY. N/A MEANS
CURRENT SKY AND/OR WEATHER CONDITIONS ARE NOT AVAILABLE.

MNZ060>063-068>070-262300-
   Twin Cities Metro

CITY           SKY/WX    TMP DP  RH WIND       PRES   REMARKS
TWIN CITIES    PTSUNNY   78  54  43 SW9       29.72S
ST PAUL        MOSUNNY   76  56  49 S10       29.71F
CRYSTAL        MOSUNNY   79  50  36 SW15      29.70S
BLAINE         PTSUNNY   81  54  39 SW9       29.71S
LAKEVILLE      MOSUNNY   75  55  50 SW5       29.73S
EDEN PRAIRIE   MOSUNNY   78  52  40 W8        29.71S
SOUTH ST PAUL  MOSUNNY   77  54  45 SW9       29.72S
LAKE ELMO      FAIR      75  59  57 S7        29.73S
$$
MNZ001>005-007-008-013>017-022>024-027-028-262300-
   Northwest Minnesota

CITY           SKY/WX    TMP DP  RH WIND       PRES   REMARKS
BEMIDJI        PTSUNNY   71  45  39 W12       29.68S
HALLOCK        PTSUNNY   66  45  45 W15       29.65S
ROSEAU         MOSUNNY   70  48  46 W14G21    29.65R
WARROAD        SUNNY     70  50  49 W16G23    29.64S
THIEF RVR FALL PTSUNNY   68  43  40 W20G26    29.70R
CROOKSTON      PTSUNNY   68  45  42 W20G26    29.71R
FOSSTON        MOSUNNY   70  43  37 SW15G24   29.70S
DETROIT LAKES  SUNNY     68  43  40 W12       29.74S
MOORHEAD       SUNNY     70  39  32 W18G28    29.74R
PARK RAPIDS    LGT RAIN  73  43  33 W13G21    29.70S
MAHNOMEN       FAIR      70  43  37 W14G28    29.71R
$$
MNZ006-009>011-018-025>026-262300-
   North Central Minnesota

CITY           SKY/WX    TMP DP  RH WIND       PRES   REMARKS
BAUDETTE       MOSUNNY   74  44  34 W17       29.63R
FLAG ISLAND    PTSUNNY   66  46  48 SW17      29.61R
INTL FALLS     MOSUNNY   75  41  29 W10G28    29.63R
WASKISH        CLOUDY    70  52  52 W10G17    29.66S
BIG FORK       PTSUNNY   75  43  31 SW15      29.66R
LONGVILLE      MOSUNNY   72  45  37 SW8G16    29.70R
GRAND RAPIDS   MOSUNNY   74  45  35 SW9G22    29.69R
CRANE LAKE     CLOUDY    63  57  82 S5        29.67R
ORR            CLOUDY    70  52  52 SE9       29.63R
COOK           CLOUDY    68  55  64 S8        29.66F
WALKER         MOCLDY    69  45  41 SW10      29.69R
$$
MNZ012-019>021-037-262300-
   Northeast Minnesota

CITY           SKY/WX    TMP DP  RH WIND       PRES   REMARKS
DULUTH         CLOUDY    62  52  69 SE6       29.70S
ELY            TSTM      57  54  88 W12G44    29.71R
HIBBING        CLOUDY    72  53  51 W6        29.65F
EVELETH        CLOUDY    71  49  45 NW9G16    29.68S
DULUTH HARBOR  SUNNY     48  45  87 N6        29.72S THUNDER
TWO HARBORS    SUNNY     70  57  64 SE5       29.68F
SILVER BAY     MOSUNNY   64  54  68 NE7       29.70S
GRAND MARAIS     N/A     50  45  83 NE7       29.74F
G MARAIS ARPRT CLOUDY    63  48  59 SE10      29.76F
$$
MNZ029>031-032-039>041-046>048-054>057-064-262300-
   West Central Minnesota

CITY           SKY/WX    TMP DP  RH WIND       PRES   REMARKS
FERGUS FALLS   SUNNY     70  45  40 NW18G25   29.72S
WHEATON        SUNNY     72  39  30 W13G22    29.78R
MORRIS         SUNNY     73  46  38 W15G24    29.75R
ALEXANDRIA     SUNNY     71  45  39 W16       29.76R
ELBOW LAKE     FAIR      70  45  39 W17G26    29.76R
WADENA         MOSUNNY   72  45  37 SW15      29.72R
GLENWOOD       SUNNY     70  46  43 W16       29.76R
APPLETON       MOSUNNY   73  39  29 W18       29.76R
BENSON         SUNNY     73  43  33 W16       29.77S
ORTONVILLE     SUNNY     72  43  35 W12G24    29.77R
MADISON        SUNNY     75  46  35 W13G20    29.77R
WILLMAR        FAIR      73  46  38 W17       29.77S
$$
MNZ033>034-036-042>043-049>051-058-059-262300-
   Central Minnesota

CITY           SKY/WX    TMP DP  RH WIND       PRES   REMARKS
ST CLOUD       SUNNY     74  50  42 W13       29.72S
SAUK CENTRE    MOCLDY    72  47  41 W14       29.74S
PAYNESVILLE    MOSUNNY   73  43  33 W13G18    29.75S
AITKIN         MOSUNNY   75  48  38 SW12      29.67S
PINE RIVER     MOSUNNY   72  48  43 W9        29.74S
BRAINERD       SUNNY     73  45  36 W13       29.71R
STAPLES        PTSUNNY   72  43  35 SW8       29.72S
LONG PRAIRIE   FAIR      70  43  37 W10       29.75R
LITTLE FALLS   MOSUNNY   70  43  37 W8G17     29.73S
LITCHFIELD     MOSUNNY   73  50  43 W9G16     29.75S
BUFFALO        MOSUNNY   76  47  36 W9        29.74R
MAPLE LAKE     SUNNY     77  50  38 W7        29.74S
HUTCHINSON     MOSUNNY   77  51  39 W10       29.75S
$$
MNZ037-044-045-052-053-262300-
   East Central Minnesota

CITY           SKY/WX    TMP DP  RH WIND       PRES   REMARKS
PRINCETON      MOSUNNY   79  52  38 SW15      29.72R
MORA           MOSUNNY   75  52  43 W13       29.71S
CAMBRIDGE      MOSUNNY   79  57  47 SW5       29.69S
RUSH CITY      RAIN      76  54  45 S12       29.70S
MOOSE LAKE     CLOUDY    63  55  77 S3G16     29.67S
HINCKLEY       MOCLDY    75  57  53 S13       29.69S
CLOQUET        MOSUNNY   66  50  55 SE7       29.69S
MCGREGOR       PTSUNNY   73  50  43 SW12G22   29.68S
$$
MNZ071>073-080-081-089-090-097-098-262300-
   Southwest Minnesota

CITY           SKY/WX    TMP DP  RH WIND       PRES   REMARKS
MONTEVIDEO     SUNNY     75  43  31 N14       29.76S
CANBY          MOSUNNY   71  47  42 CALM      29.79S
MARSHALL       MOSUNNY   73  45  36 W15G23    29.79S
REDWOOD FALLS  SUNNY     75  45  34 W16       29.76R
OLIVIA         SUNNY     73  45  35 W15G23    29.75S
PIPESTONE      SUNNY     72  34  25 NW13G18   29.82R
WINDOM         SUNNY     75  41  29 W16G23    29.79R
WORTHINGTON    SUNNY     73  45  36 W16       29.81R
JACKSON        SUNNY     75  43  31 W16       29.79S
TRACY          SUNNY     73  48  40 NW12G17   29.80S
SLAYTON        SUNNY     71  44  38 W13G20    29.82S
$$
MNZ065>067-074>077-082>085-091>093-262300-
   South Central Minnesota

CITY           SKY/WX    TMP DP  RH WIND       PRES   REMARKS
MANKATO        SUNNY     78  51  38 W15       29.75S
NEW ULM        SUNNY     75  46  35 W15G21    29.76R
ST JAMES       SUNNY     79  48  34 W13G22    29.77R
FAIRMONT       MOSUNNY   79  48  33 W14G20    29.76S
GLENCOE        MOSUNNY   78  51  39 W10G18    29.74R
FARIBAULT      MOSUNNY   79  55  44 SW6       29.75R
OWATONNA       MOSUNNY   79  55  44 S6        29.75S
WASECA         MOSUNNY   77  46  33 W10       29.76S
ALBERT LEA     MOSUNNY   77  59  53 SE7       29.76S
$$
MNZ078>079-086>088-094>096-262300-
   Southeast Minnesota

CITY           SKY/WX    TMP DP  RH WIND       PRES   REMARKS
ROCHESTER      MOSUNNY   73  57  57 S9        29.79R
RED WING       MOSUNNY   75  54  46 S9        29.74S
STANTON        PTSUNNY   77  57  50 S8        29.73S
DODGE CENTER   MOSUNNY   75  55  50 S10G18    29.77S
WINONA         SUNNY     73  57  56 S5        29.78S
AUSTIN         SUNNY     75  57  53 S12       29.77S
PRESTON        MOSUNNY   69  56  61 S8        29.81R
$$
ABBREVIATIONS USED IN REMARKS
   TC - TEMPERATURES IN CELSIUS
  WCI - WIND CHILL INDEX
   HX - HEAT INDEX
  VSB - VISIBILITY
$$




USA.gov is the U.S. government's official web portal to all federal, state and local government web resources and services.